[[{"header":{"parameterUnit":"m.s-1","parameterCategory":1,"la1":30.2991,"la2":30.254,"lo1":-89.0895,"lo2":-89.0444,"dy":0.0017,"dx":0.0017,"nx":28,"ny":28,"refTime":"2023-10-21T21:00:00:Z","depth":0,"parameterNumber":2,"parameterNumberName":"U-component_of_WINDS"},"data":[0,0,0,0,0,0,0,0,0,0,0,0,0,0,0,0,0,0,0,0,0,0,0,0,0,0,0,0,0,0,0,0,0,0,0,0,0,0,0,0,0,0,0,0,0,0,0,0,0,0,0,0,0,0,0,0,0,0,0.7821,0.7821,0,0.7843,0.7843,0.7844,0.7825,0.7824,0.7824,0.7823,0.7846,0.7847,0.7849,0,0,0,0,0,0,0,0,0,0,0,0,0,0.7762,0.7763,0.7821,0.7821,0.7821,0.7843,0.7844,0.7844,0.7825,0.7824,0.7823,0.7823,0.7845,0.7847,0.7849,0,0,0,0,0,0,0,0,0,0,0,0,0,0.7786,0.7763,0.7821,0.7815,0.7814,0.7843,0.7844,0.7844,0.7826,0.7824,0.7823,0.7822,0.7845,0.7847,0.7849,0.7885,0,0,0.7855,0.7856,0,0,0,0,0,0,0,0,0.7785,0.7788,0.7815,0.7815,0.7815,0.783,0.7831,0.7858,0.7826,0.7821,0.7823,0.7821,0.7842,0.7844,0.7851,0.7886,0.7887,0.7855,0.7856,0.7857,0.7858,0,0,0,0,0,0,0,0.7783,0.7787,0.783,0.7816,0.7815,0.7811,0.7813,0.7836,0.7838,0.7822,0.782,0.7823,0.7841,0.7849,0.7851,0.7887,0.7855,0.7857,0.7858,0.7859,0.7953,0.7954,0,0,0,0,0,0,0.7782,0.7786,0.7829,0.783,0.7797,0.7813,0.7815,0.7826,0.7837,0.7838,0.7824,0.7822,0.7846,0.7849,0.7852,0.7894,0.7857,0.7859,0.786,0.7951,0.7953,0.7954,0,0,0,0,0,0,0.7781,0.7786,0.7828,0.7808,0.7813,0.7815,0.7828,0.7828,0.7835,0.7839,0.784,0.7831,0.7845,0.7849,0.7877,0.7895,0.786,0.7862,0.795,0.7952,0.7954,0.7979,0,0,0,0,0,0,0.7779,0.7786,0.7799,0.7808,0.7814,0.7853,0.7829,0.7829,0.7838,0.7836,0.7846,0.7847,0.7844,0.7874,0.7879,0.7897,0.7863,0.7948,0.7951,0.7953,0.7977,0.7982,0.7986,0,0,0,0,0,0.7777,0.7806,0.78,0.7805,0.7831,0.7854,0.7857,0.7853,0.784,0.7854,0.7857,0.7847,0.7892,0.7877,0.7882,0.7901,0.7947,0.795,0.7953,0.7975,0.7981,0.7986,0,0,0,0,0,0,0.7799,0.7807,0.7801,0.7833,0.7843,0.785,0.7868,0.786,0.7874,0.7871,0.7866,0.7869,0.7898,0.7902,0.7885,0.7936,0.7917,0.7921,0.7932,0.7938,0.7943,0.7941,0.7865,0,0,0,0,0,0.7807,0.7825,0.7831,0.7859,0.7864,0.7865,0.7875,0.7871,0.7881,0.7885,0.789,0.79,0.7917,0.7928,0.7943,0.7978,0.798,0.7994,0.7998,0.8002,0.8005,0.8024,0.803,0.7964,0.7964,0.7964,0,0,0.7825,0.7832,0.7843,0.7864,0.7871,0.7889,0.7869,0.7889,0.7903,0.7889,0.7915,0.7919,0.793,0.7961,0.7975,0.7965,0.8024,0.8006,0.8009,0.801,0.8027,0.8034,0.8039,0.7966,0.7965,0.7965,0,0,0.7867,0.7874,0.7898,0.7905,0.7917,0.7917,0.7923,0.7932,0.7934,0.796,0.795,0.7966,0.7995,0.8003,0.8011,0.8056,0.8047,0.8061,0.8085,0.8103,0.8108,0.8113,0.8129,0.8135,0.8065,0.8065,0.8065,0,0.7888,0.7915,0.7911,0.7932,0.7941,0.793,0.7954,0.7961,0.7977,0.7984,0.7973,0.8008,0.8015,0.8048,0.8059,0.8066,0.8072,0.806,0.8108,0.8113,0.8117,0.8132,0.8138,0.8066,0.8066,0.8066,0.8066,0,0.794,0.7959,0.7977,0.7992,0.8003,0.8026,0.8025,0.8037,0.8033,0.8035,0.8062,0.8069,0.8086,0.8093,0.8089,0.8126,0.8119,0.8109,0.8089,0.8125,0.8139,0.8144,0.8068,0.8068,0.8067,0.8067,0,0,0.7995,0.8008,0.8015,0.8022,0.8033,0.8048,0.807,0.8086,0.8097,0.8108,0.8126,0.8151,0.8141,0.815,0.8147,0.8162,0.8197,0.8149,0.815,0.8158,0.8237,0.8245,0.8252,0.8192,0.8193,0.8194,0.8236,0,0.8037,0.8075,0.8073,0.8109,0.8126,0.8115,0.8134,0.8144,0.8146,0.8161,0.8163,0.8181,0.8166,0.8172,0.8187,0.819,0.8213,0.8187,0.8208,0.8209,0.8206,0.8259,0.8268,0.8308,0.8242,0.8243,0.8243,0,0.8091,0.8104,0.8142,0.8151,0.8158,0.8175,0.819,0.8205,0.8215,0.8215,0.8226,0.822,0.8242,0.8223,0.8253,0.8235,0.8244,0.8247,0.8249,0.825,0.8228,0.8262,0.832,0.8326,0.8252,0.8251,0.8251,0,0.8127,0.8155,0.8181,0.8187,0.8198,0.821,0.8216,0.8225,0.8235,0.8248,0.8254,0.8269,0.8278,0.829,0.8289,0.8275,0.832,0.83,0.832,0.8321,0.833,0.8329,0.839,0.8336,0.8336,0.8336,0.8336,0,0.8174,0.8198,0.8197,0.8213,0.8239,0.8236,0.8261,0.8265,0.8273,0.829,0.8282,0.8297,0.8295,0.8311,0.831,0.8335,0.8339,0.834,0.8339,0.834,0.834,0.8346,0.8343,0.8338,0.8337,0.8337,0.8337,0,0.8219,0.8219,0.8247,0.8255,0.8258,0.8277,0.8284,0.8299,0.8301,0.8322,0.8326,0.8329,0.8347,0.8347,0.8368,0.8367,0.8398,0.8394,0.8394,0.8394,0.8414,0.8412,0.848,0.8489,0.843,0.843,0.8431,0,0.8248,0.8266,0.8276,0.8287,0.8293,0.831,0.832,0.8318,0.8329,0.8342,0.8355,0.8373,0.8386,0.8416,0.8419,0.8435,0.8432,0.8455,0.8434,0.8435,0.8432,0.8431,0.8432,0.8459,0.8459,0.846,0.846,0,0.8301,0.83,0.8315,0.833,0.8343,0.8355,0.8365,0.8374,0.8373,0.8386,0.8404,0.8415,0.8436,0.8454,0.8469,0.8474,0.8467,0.8467,0.8472,0.8473,0.8472,0.8473,0.8405,0.8465,0.8464,0.8464,0.8464,0.8464,0.8338,0.8354,0.8363,0.838,0.8388,0.8399,0.8413,0.8417,0.8432,0.8449,0.8447,0.8467,0.8477,0.8497,0.8504,0.852,0.8512,0.852,0.8522,0.8524,0.8526,0.847,0.8523,0.8522,0.8522,0.8522,0.8522,0,0.839,0.8395,0.8411,0.8427,0.844,0.8432,0.8444,0.8456,0.8474,0.8484,0.8497,0.8519,0.8535,0.8541,0.8557,0.8569,0.8566,0.8573,0.8572,0.8573,0.8532,0.8526,0.8575,0.8575,0.8575,0.8575,0.8575,0.8575,0.8418,0.8443,0.8444,0.8473,0.8479,0.8499,0.8506,0.8516,0.8523,0.8547,0.8561,0.8565,0.8573,0.859,0.8605,0.8606,0.8612,0.8621,0.862,0.8582,0.8576,0.8571,0.8565,0.8622,0.8622,0.866,0.8661,0.8661]},{"header":{"parameterUnit":"m.s-1","parameterCategory":1,"la1":30.2991,"la2":30.254,"lo1":-89.0895,"lo2":-89.0444,"dy":0.0017,"dx":0.0017,"nx":28,"ny":28,"refTime":"2023-10-21T21:00:00:Z","depth":0,"parameterNumber":3,"parameterNumberName":"V-component_of_WINDS"},"data":[0,0,0,0,0,0,0,0,0,0,0,0,0,0,0,0,0,0,0,0,0,0,0,0,0,0,0,0,0,0,0,0,0,0,0,0,0,0,0,0,0,0,0,0,0,0,0,0,0,0,0,0,0,0,0,0,0,0,1.3096,1.3097,0,1.3132,1.3132,1.3133,1.3131,1.3131,1.313,1.313,1.3165,1.3166,1.3168,0,0,0,0,0,0,0,0,0,0,0,0,0,1.3025,1.3026,1.3096,1.3097,1.3097,1.3132,1.3132,1.3133,1.3131,1.3131,1.313,1.3129,1.3164,1.3166,1.3168,0,0,0,0,0,0,0,0,0,0,0,0,0,1.3058,1.3027,1.3096,1.3101,1.3101,1.3132,1.3132,1.3133,1.3131,1.3131,1.313,1.3129,1.3164,1.3166,1.3168,1.3196,0,0,1.3174,1.3175,0,0,0,0,0,0,0,0,1.3056,1.306,1.3099,1.31,1.3101,1.3126,1.312,1.3154,1.3131,1.312,1.313,1.3129,1.3153,1.3156,1.3164,1.3198,1.3199,1.3175,1.3176,1.3177,1.3177,0,0,0,0,0,0,0,1.3054,1.3059,1.311,1.31,1.3101,1.31,1.3104,1.3127,1.314,1.3121,1.3121,1.3125,1.3153,1.3162,1.3165,1.32,1.3175,1.3176,1.3178,1.3179,1.3258,1.3259,0,0,0,0,0,0,1.3051,1.3057,1.3109,1.3111,1.3076,1.3102,1.3106,1.3119,1.314,1.3142,1.3126,1.3125,1.3159,1.3162,1.3166,1.32,1.3177,1.3179,1.318,1.3257,1.3258,1.3259,0,0,0,0,0,0,1.3049,1.3055,1.3108,1.3084,1.3091,1.3104,1.3118,1.312,1.3129,1.3143,1.3146,1.3133,1.3158,1.3163,1.3189,1.3201,1.318,1.3182,1.3256,1.3258,1.3259,1.3269,0,0,0,0,0,0,1.3047,1.3055,1.3066,1.3084,1.3092,1.3131,1.3119,1.3121,1.3133,1.3132,1.315,1.3153,1.3158,1.3186,1.3191,1.3204,1.3183,1.3255,1.3257,1.3258,1.3268,1.327,1.3273,0,0,0,0,0,1.3044,1.3067,1.3067,1.3073,1.3107,1.3131,1.3136,1.3142,1.3134,1.3145,1.3154,1.3152,1.3199,1.3188,1.3194,1.3208,1.3254,1.3256,1.3258,1.3266,1.327,1.3273,0,0,0,0,0,0,1.305,1.307,1.3069,1.3099,1.3113,1.3131,1.3145,1.3145,1.3162,1.316,1.3166,1.317,1.3196,1.3205,1.3192,1.3236,1.3226,1.3229,1.323,1.3233,1.3236,1.3233,1.3185,0,0,0,0,0,1.3054,1.3073,1.309,1.3114,1.3121,1.3132,1.3143,1.3146,1.3161,1.3167,1.3178,1.3193,1.3211,1.3222,1.324,1.3269,1.3272,1.3281,1.3284,1.3286,1.3288,1.3304,1.3308,1.3266,1.3265,1.3265,0,0,1.3064,1.3078,1.3089,1.3116,1.3127,1.3146,1.3137,1.3158,1.3172,1.317,1.3196,1.3204,1.322,1.3248,1.326,1.3255,1.3301,1.3288,1.329,1.3291,1.3306,1.331,1.3314,1.3267,1.3267,1.3266,0,0,1.3092,1.3104,1.3126,1.3137,1.3155,1.3162,1.3167,1.3185,1.319,1.3216,1.3215,1.3231,1.3262,1.3273,1.3283,1.3314,1.3313,1.332,1.3334,1.3349,1.3352,1.3355,1.3366,1.337,1.3322,1.3322,1.3322,0,1.3102,1.3131,1.3137,1.3157,1.3169,1.3168,1.319,1.3201,1.3223,1.3231,1.3225,1.3264,1.3275,1.3304,1.3312,1.332,1.3326,1.3318,1.3351,1.3354,1.3357,1.3367,1.3371,1.3323,1.3323,1.3323,1.3323,0,1.3142,1.3162,1.3177,1.3199,1.3212,1.3233,1.3241,1.3254,1.3255,1.3263,1.3288,1.3301,1.3321,1.3328,1.333,1.3358,1.3354,1.335,1.334,1.3362,1.3371,1.3375,1.3324,1.3324,1.3324,1.3323,0,0,1.3174,1.3199,1.3204,1.3214,1.3233,1.3248,1.3269,1.3289,1.3299,1.3314,1.3331,1.3357,1.3353,1.3364,1.3367,1.338,1.3403,1.3374,1.3374,1.3379,1.3434,1.3438,1.3442,1.3402,1.3403,1.3404,1.3433,0,1.3203,1.3241,1.3246,1.3279,1.3297,1.3297,1.3314,1.3328,1.3335,1.3351,1.3358,1.3377,1.337,1.3376,1.3389,1.3398,1.3415,1.3396,1.3418,1.3418,1.3414,1.3448,1.3451,1.3478,1.3437,1.3438,1.3438,0,1.3243,1.3259,1.3294,1.331,1.3318,1.3334,1.3352,1.3368,1.3382,1.3387,1.3399,1.34,1.3421,1.3409,1.3437,1.3424,1.3434,1.3439,1.344,1.3443,1.343,1.3451,1.3487,1.3491,1.3444,1.3444,1.3443,0,1.3263,1.3294,1.3318,1.3326,1.3346,1.3357,1.3366,1.338,1.3391,1.3407,1.3414,1.3432,1.3441,1.3455,1.346,1.3452,1.3488,1.3477,1.3491,1.3491,1.3499,1.3499,1.3538,1.3505,1.3505,1.3505,1.3505,0,1.3295,1.3316,1.3327,1.3342,1.3365,1.3371,1.3394,1.3402,1.3415,1.3431,1.3431,1.3446,1.3453,1.3469,1.3473,1.3496,1.35,1.3503,1.3504,1.3504,1.3503,1.351,1.3508,1.3506,1.3506,1.3506,1.3506,0,1.3322,1.333,1.3357,1.3373,1.3378,1.3394,1.3408,1.3422,1.3429,1.3449,1.3454,1.3464,1.3483,1.349,1.3513,1.3515,1.3541,1.3541,1.3536,1.3537,1.3551,1.3549,1.3595,1.3602,1.3565,1.3565,1.3566,0,1.3342,1.3358,1.3376,1.3387,1.3396,1.3414,1.3425,1.3432,1.3443,1.3461,1.3473,1.3492,1.3507,1.3536,1.3546,1.3563,1.3562,1.3577,1.3565,1.3563,1.3562,1.3561,1.3563,1.358,1.358,1.358,1.3581,0,1.3376,1.338,1.3397,1.3415,1.3428,1.3443,1.3457,1.3466,1.3474,1.3487,1.3506,1.3518,1.3541,1.3559,1.3577,1.3585,1.3584,1.3584,1.3589,1.3588,1.3585,1.3586,1.3543,1.3583,1.3583,1.3583,1.3583,1.3583,1.34,1.3414,1.3429,1.3448,1.3459,1.3472,1.3486,1.3495,1.3511,1.3531,1.3533,1.3553,1.3567,1.359,1.3599,1.3615,1.3611,1.3617,1.3619,1.362,1.3621,1.3582,1.3618,1.3618,1.3618,1.3618,1.3618,0,1.3435,1.3444,1.3461,1.3481,1.3495,1.3494,1.3509,1.3521,1.3539,1.3552,1.3567,1.3589,1.3607,1.3617,1.3634,1.3645,1.3645,1.3649,1.3649,1.365,1.3624,1.3618,1.3649,1.3649,1.3649,1.3649,1.3649,1.3649,1.3455,1.3478,1.3483,1.3512,1.3522,1.3542,1.3551,1.3563,1.3573,1.3597,1.3612,1.3619,1.3631,1.3649,1.3665,1.3667,1.3674,1.3678,1.368,1.3655,1.3652,1.3649,1.3644,1.368,1.368,1.3706,1.3706,1.3706]}]]